Location: Saluda
(35.2377°N, 82.3468°W)
Time: 16:07:10
(UTC+00:00)

Explorer 11/Cluster Stage 4 - Pass Details

Date: 06 October 2022
Orbit: 466 x 1247 km, 28.8° (Epoch: 08 December)

Event Time Altitude Azimuth Distance (km) Brightness Sun altitude
Rises 20:11:47 0° 270° (W) 4,070 11.0 32.4°
Reaches altitude 10° 20:15:13 10° 259° (W) 3,016 10.7 31.8°
Maximum altitude 20:21:20 28° 204° (SSW) 1,798 9.7 30.7°
Drops below altitude 10° 20:26:36 10° 148° (SSE) 2,562 9.3 29.8°
Sets 20:29:17 0° 136° (SE) 3,365 9.7 29.4°
